Temp
-3 -3 -3 -3 -3 -2 0 1 2 1 2 1 0 1 -1 -0 1 1 1 1 1 -0 -0 0 2 3 3 1 1 0 2 2 5 8 10 10 10 10 10 10 10 10 11 13
-3 -2 -3 -3 -3 -2 -2 -2 -2 0 1 0 0 -0 -1 -1 0 0 1 1 1 1 0 -1 0 0 1 1 1 -0 -0 1 3 7 9 7 7 9 9 10 11 11 9 12
-2 -3 -3 -3 -2 -2 -2 -2 -1 -1 -2 -3 -2 -2 -1 -1 -1 -1 -0 0 0 0 -0 0 -1 -0 1 1 1 0 1 -1 0 2 6 4 5 7 9 9 8 10 10 11
-2 -2 -2 -2 -3 -3 -2 -3 -3 -3 -1 -1 -1 -3 -2 -2 -1 -0 -1 -0 -0 -1 -2 -1 -0 1 1 1 0 0 1 -1 0 0 1 1 1 1 4 6 8 10 11 11
-2 -2 -2 -2 -3 -3 -3 -3 -3 -4 -3 -3 -3 -1 -1 -1 -1 -1 -1 -1 -1 -1 -2 -1 -2 -1 -1 -1 0 -0 0 -1 0 -1 1 1 0 1 2 2 7 8 9 10
-3 -3 -3 -3 -3 -3 -3 -4 -4 -4 -2 -3 -3 -1 -1 -1 -1 -1 -1 -1 -2 -2 -1 -1 -1 -1 -1 -1 -1 -1 -1 -2 -2 -2 0 1 1 2 3 4 6 8 8 10
-4 -4 -4 -4 -3 -3 -4 -4 -4 -4 -2 -2 -1 -2 -2 -1 -1 -2 -2 -2 -3 -2 -2 -3 -2 -2 -1 -1 -1 -1 -2 -2 -2 -2 -1 -3 2 5 5 6 6 8 9 9
-4 -4 -4 -4 -4 -3 -4 -4 -4 -4 -3 -2 -2 -2 -1 -2 -2 -2 -3 -2 -2 -3 -3 -3 -2 -0 1 1 2 0 -1 -3 -3 -3 -1 1 2 4 5 5 7 9 9 10
-4 -4 -4 -4 -4 -3 -4 -4 -4 -4 -4 -2 -2 -3 -3 -3 -3 -2 -2 -3 -3 -4 -2 -2 -3 -2 -1 -2 -1 -1 1 -2 -3 -1 -2 -1 3 4 5 6 5 7 8 10
-4 -4 -4 -4 -4 -4 -4 -4 -4 -4 -4 -3 -4 -3 -4 -4 -4 -3 -2 -2 -3 -3 -2 -3 -2 -2 -1 -2 -2 -2 -1 -1 -2 -1 -1 1 3 5 5 3 5 9 9 9
-4 -4 -4 -4 -4 -4 -4 -4 -4 -5 -5 -4 -4 -4 -4 -4 -4 -3 -3 -3 -4 -3 -3 -3 -2 -2 -1 -3 -2 -3 -3 -5 -1 -0 -1 -0 0 2 3 6 8 7 8 8
-4 -4 -4 -4 -4 -4 -4 -4 -4 -5 -4 -4 -4 -4 -4 -5 -4 -4 -4 -3 -3 -3 -3 -3 -3 -3 -2 -3 -3 -4 -5 -7 -6 -6 -2 -0 -5 -5 -4 -2 5 5 4 4
-5 -5 -4 -4 -4 -4 -4 -4 -4 -5 -5 -4 -4 -5 -4 -4 -4 -5 -4 -4 -4 -4 -3 -4 -3 -3 -3 -4 -5 -6 -7 -6 -8 -7 -5 -5 -6 -5 -1 1 1 3 2 1
-5 -5 -4 -4 -5 -5 -4 -4 -5 -5 -5 -5 -4 -5 -5 -6 -5 -6 -6 -5 -5 -5 -5 -4 -4 -4 -6 -6 -6 -7 -8 -8 -8 -7 -6 -6 -3 -2 -0 -0 -1 -1 -1 -1
-5 -5 -5 -5 -3 -4 -4 -5 -5 -5 -5 -4 -4 -5 -5 -6 -7 -8 -7 -6 -6 -5 -4 -6 -6 -6 -6 -6 -6 -8 -9 -9 -9 -8 -8 -7 -5 -4 -3 -3 -3 -3 -3 -3
-4 -5 -3 -2 -3 -4 -4 -5 -5 -6 -5 -5 -4 -5 -6 -6 -7 -8 -8 -7 -7 -6 -6 -7 -8 -8 -7 -8 -8 -9 -10 -10 -10 -9 -8 -9 -8 -8 -6 -5 -5 -5 -4 -4
-2 -2 -2 -2 -3 -3 -4 -5 -5 -5 -5 -6 -5 -4 -6 -6 -7 -7 -7 -7 -7 -7 -8 -8 -7 -8 -8 -8 -9 -10 -10 -10 -10 -10 -9 -9 -9 -9 -8 -8 -7 -6 -6 -6
-1 -1 -2 -2 -3 -3 -4 -4 -4 -5 -5 -5 -5 -6 -6 -7 -7 -6 -6 -6 -7 -7 -7 -7 -7 -8 -8 -9 -10 -10 -11 -10 -10 -10 -10 -10 -10 -9 -8 -8 -8 -7 -8 -7
-1 -1 -2 -3 -3 -3 -4 -4 -4 -4 -4 -6 -6 -7 -7 -7 -7 -7 -6 -5 -6 -7 -7 -7 -7 -8 -10 -10 -10 -11 -11 -11 -11 -10 -10 -10 -10 -10 -10 -9 -9 -9 -8 -8
-1 -1 -2 -2 -3 -3 -3 -4 -4 -4 -6 -6 -8 -8 -7 -8 -7 -6 -5 -5 -5 -7 -7 -7 -8 -9 -10 -11 -11 -11 -11 -11 -11 -11 -11 -11 -11 -11 -10 -10 -10 -9 -10 -8
-2 -2 -3 -3 -3 -3 -3 -5 -7 -8 -8 -9 -9 -9 -9 -9 -7 -6 -6 -6 -6 -7 -7 -7 -8 -9 -10 -10 -11 -11 -10 -10 -11 -11 -11 -11 -10 -10 -10 -10 -9 -9 -9 -9
-4 -4 -4 -4 -4 -4 -7 -10 -9 -9 -9 -9 -9 -9 -10 -9 -8 -7 -7 -6 -6 -7 -7 -8 -9 -9 -11 -10 -11 -11 -11 -10 -10 -10 -11 -10 -10 -10 -10 -10 -9 -9 -9 -9
-4 -4 -4 -5 -7 -9 -10 -10 -9 -9 -9 -9 -10 -10 -10 -9 -8 -8 -7 -7 -8 -8 -8 -9 -9 -10 -11 -11 -11 -10 -11 -11 -10 -10 -10 -10 -10 -10 -10 -10 -10 -10 -9 -9
-4 -5 -9 -10 -10 -9 -9 -9 -9 -10 -10 -10 -11 -10 -10 -10 -8 -8 -7 -9 -8 -9 -9 -9 -9 -11 -11 -11 -11 -11 -11 -11 -11 -11 -11 -11 -11 -11 -11 -11 -11 -11 -10 -10
-5 -6 -11 -10 -10 -9 -10 -10 -11 -10 -12 -11 -11 -10 -11 -9 -8 -8 -8 -9 -9 -9 -9 -9 -10 -11 -11 -11 -11 -11 -11 -11 -11 -11 -11 -12 -12 -12 -12 -12 -12 -12 -11 -11
-7 -8 -9 -10 -9 -10 -10 -11 -11 -12 -13 -12 -11 -11 -11 -10 -9 -9 -9 -9 -10 -10 -10 -11 -11 -11 -11 -11 -11 -11 -12 -12 -12 -12 -12 -13 -13 -13 -12 -12 -12 -12 -12 -12
-8 -9 -10 -10 -10 -10 -11 -12 -11 -10 -11 -11 -12 -11 -12 -12 -11 -10 -10 -10 -11 -12 -12 -12 -12 -12 -12 -12 -12 -12 -12 -13 -13 -13 -13 -13 -13 -13 -13 -13 -13 -13 -13 -13
Height
1551 1547 1542 1538 1532 1525 1517 1513 1511 1509 1501 1505 1509 1510 1514 1512 1507 1508 1505 1502 1501 1502 1501 1496 1488 1481 1482 1486 1487 1485 1482 1469 1444 1431 1430 1433 1430 1427 1427 1422 1422 1425 1415 1400
1551 1546 1542 1537 1532 1526 1520 1517 1516 1513 1508 1511 1511 1514 1513 1512 1509 1507 1505 1502 1502 1501 1501 1502 1492 1490 1489 1487 1489 1489 1489 1471 1453 1425 1425 1434 1432 1426 1426 1419 1417 1407 1419 1398
1551 1547 1543 1537 1533 1529 1524 1521 1518 1517 1515 1518 1518 1516 1511 1510 1508 1506 1505 1504 1501 1500 1498 1497 1491 1487 1486 1487 1485 1484 1483 1480 1473 1450 1423 1442 1431 1419 1415 1416 1413 1397 1397 1398
1550 1546 1541 1537 1532 1527 1526 1523 1523 1523 1518 1515 1516 1519 1513 1509 1505 1505 1503 1499 1498 1499 1499 1491 1487 1482 1480 1480 1479 1477 1475 1471 1466 1457 1455 1451 1447 1446 1426 1411 1400 1395 1380 1389
1548 1543 1538 1535 1531 1526 1525 1525 1523 1522 1518 1516 1515 1512 1509 1505 1502 1503 1499 1499 1496 1495 1493 1489 1487 1481 1478 1475 1472 1474 1472 1466 1460 1455 1448 1446 1442 1434 1430 1421 1400 1395 1390 1385
1546 1542 1537 1532 1529 1525 1523 1521 1518 1517 1513 1512 1511 1505 1504 1500 1499 1497 1495 1495 1493 1490 1485 1484 1479 1477 1473 1470 1466 1458 1464 1463 1458 1445 1437 1436 1422 1412 1415 1410 1400 1390 1384 1380
1543 1538 1535 1530 1526 1524 1521 1518 1516 1514 1507 1506 1502 1501 1498 1494 1493 1491 1488 1488 1489 1482 1481 1479 1473 1468 1461 1457 1452 1450 1449 1450 1448 1438 1434 1428 1396 1395 1396 1391 1387 1383 1381 1381
1540 1535 1530 1526 1523 1520 1516 1513 1511 1508 1503 1499 1495 1494 1491 1489 1485 1483 1483 1475 1478 1478 1477 1473 1463 1452 1444 1438 1435 1434 1441 1441 1438 1433 1417 1401 1391 1386 1382 1381 1371 1372 1370 1371
1535 1531 1526 1522 1519 1515 1511 1509 1508 1505 1499 1489 1491 1490 1488 1483 1477 1470 1471 1472 1471 1473 1471 1465 1461 1453 1446 1443 1433 1431 1426 1431 1429 1416 1410 1394 1371 1370 1373 1376 1358 1370 1368 1361
1531 1526 1521 1517 1513 1510 1507 1503 1501 1500 1494 1485 1488 1485 1481 1479 1472 1467 1466 1467 1467 1467 1463 1459 1454 1447 1445 1443 1437 1430 1426 1419 1413 1403 1394 1376 1365 1362 1359 1364 1352 1353 1347 1345
1526 1522 1517 1513 1510 1505 1502 1497 1496 1495 1489 1480 1480 1479 1476 1473 1471 1465 1465 1465 1463 1462 1461 1457 1449 1447 1444 1444 1437 1433 1426 1430 1407 1395 1388 1372 1367 1359 1359 1345 1341 1343 1342 1343
1523 1518 1514 1510 1505 1500 1497 1492 1490 1488 1486 1479 1477 1474 1473 1471 1467 1466 1463 1461 1461 1460 1458 1457 1454 1450 1445 1440 1433 1440 1438 1449 1439 1430 1388 1371 1377 1375 1361 1356 1344 1347 1345 1342
1519 1514 1510 1505 1500 1496 1493 1489 1486 1483 1481 1475 1475 1475 1472 1469 1465 1462 1460 1456 1455 1455 1456 1456 1453 1448 1445 1446 1450 1451 1451 1446 1439 1429 1396 1388 1372 1351 1349 1347 1343 1346 1349 1345
1515 1510 1505 1501 1496 1492 1489 1486 1485 1483 1481 1478 1477 1475 1469 1467 1459 1454 1451 1449 1452 1453 1454 1454 1452 1450 1459 1461 1462 1462 1463 1450 1439 1421 1404 1380 1359 1347 1347 1345 1345 1345 1349 1351
1511 1507 1501 1496 1492 1489 1487 1486 1484 1483 1485 1478 1474 1473 1472 1468 1460 1451 1442 1441 1446 1450 1453 1460 1463 1466 1466 1467 1464 1464 1463 1454 1442 1427 1417 1404 1383 1364 1359 1353 1355 1357 1353 1358
1507 1502 1497 1494 1492 1489 1487 1486 1485 1483 1480 1478 1475 1476 1473 1470 1465 1457 1448 1445 1446 1451 1460 1468 1474 1473 1473 1473 1471 1473 1465 1457 1447 1438 1422 1409 1394 1379 1374 1366 1363 1366 1365 1369
1504 1499 1496 1494 1492 1490 1490 1491 1488 1483 1480 1479 1478 1478 1479 1475 1471 1469 1463 1461 1460 1462 1469 1477 1479 1478 1478 1481 1481 1478 1467 1457 1446 1435 1422 1409 1401 1402 1389 1384 1382 1377 1377 1384
1503 1499 1496 1495 1493 1491 1490 1489 1486 1483 1482 1482 1484 1486 1483 1480 1477 1475 1475 1473 1472 1477 1482 1485 1484 1483 1484 1488 1490 1482 1471 1461 1451 1443 1436 1432 1424 1410 1403 1400 1394 1389 1393 1398
1501 1498 1496 1494 1493 1491 1491 1489 1487 1486 1488 1488 1492 1492 1487 1484 1481 1479 1477 1478 1481 1488 1489 1490 1492 1492 1495 1502 1494 1485 1478 1472 1465 1456 1447 1440 1433 1430 1425 1419 1414 1411 1414 1415
1500 1497 1497 1496 1495 1492 1491 1490 1490 1490 1491 1493 1498 1496 1491 1490 1484 1480 1479 1480 1486 1491 1496 1497 1499 1503 1507 1502 1498 1493 1487 1480 1472 1463 1454 1450 1446 1443 1439 1435 1433 1431 1430 1429
1500 1498 1498 1498 1495 1494 1493 1495 1497 1499 1500 1501 1501 1499 1496 1491 1488 1484 1483 1486 1491 1498 1502 1502 1506 1509 1511 1507 1502 1497 1491 1485 1480 1475 1471 1466 1461 1455 1451 1448 1445 1443 1441 1439
1503 1502 1500 1499 1499 1499 1502 1510 1509 1510 1511 1508 1505 1502 1499 1494 1491 1488 1488 1491 1495 1503 1505 1508 1513 1517 1514 1509 1504 1499 1494 1489 1484 1480 1476 1472 1468 1465 1461 1458 1455 1452 1450 1448
1503 1503 1502 1505 1511 1516 1523 1527 1520 1518 1515 1512 1509 1505 1502 1497 1495 1493 1492 1497 1504 1507 1511 1517 1520 1520 1516 1511 1505 1500 1497 1492 1487 1483 1480 1476 1473 1470 1466 1464 1461 1459 1456 1453
1505 1506 1515 1520 1527 1529 1529 1528 1526 1522 1516 1513 1510 1506 1504 1500 1498 1498 1500 1508 1507 1514 1518 1520 1522 1520 1517 1512 1508 1502 1497 1493 1489 1485 1481 1478 1474 1472 1469 1466 1464 1461 1459 1457
1511 1515 1530 1532 1532 1531 1529 1526 1522 1519 1515 1513 1510 1508 1507 1504 1503 1506 1508 1512 1517 1519 1521 1524 1523 1520 1516 1512 1508 1503 1498 1494 1490 1487 1483 1479 1475 1472 1469 1466 1464 1461 1459 1457
1522 1530 1534 1534 1532 1530 1527 1523 1520 1517 1513 1511 1511 1509 1509 1513 1514 1514 1518 1518 1525 1527 1527 1526 1522 1519 1515 1511 1507 1503 1499 1495 1490 1486 1483 1479 1476 1472 1469 1466 1463 1460 1458 1456
1533 1539 1538 1536 1535 1533 1529 1525 1521 1517 1514 1514 1513 1517 1523 1521 1522 1526 1527 1529 1531 1530 1527 1524 1521 1517 1513 1509 1505 1501 1497 1494 1490 1486 1483 1479 1476 1472 1468 1464 1462 1459 1457 1454
Wind_Speed
22 26 28 28 29 31 25 12 3 25 11 7 4 2 7 8 6 9 4 4 2 3 6 8 8 12 8 21 15 9 8 6 10 18 9 13 20 15 19 9 12 5 9 9
26 26 26 25 26 29 24 6 6 13 20 5 6 6 5 5 6 7 5 4 4 7 6 6 9 7 13 23 7 8 8 4 6 16 14 8 11 17 16 19 12 19 10 8
22 23 22 23 24 26 22 6 3 7 9 2 2 5 5 6 6 9 5 9 11 7 11 12 9 15 10 21 20 25 12 9 16 15 17 16 9 16 23 23 15 22 19 17
23 23 23 23 21 25 18 7 2 1 5 6 10 2 4 10 10 6 8 6 8 13 11 15 19 15 19 23 20 20 5 11 17 22 24 26 21 22 23 20 28 22 24 22
25 24 22 21 22 21 12 5 3 2 11 11 9 5 8 12 15 10 12 13 18 17 16 17 19 21 21 16 17 16 14 15 18 23 26 26 29 29 24 25 25 26 27 26
26 27 24 20 18 20 12 14 9 6 6 6 6 12 12 16 16 17 21 17 15 17 20 26 26 27 28 23 24 26 21 17 19 25 27 25 22 28 28 26 26 25 23 22
26 25 25 26 21 19 18 17 15 6 9 9 13 14 20 19 23 21 29 25 17 26 26 25 25 25 29 29 27 29 24 22 15 18 21 23 18 21 21 20 24 27 27 24
27 28 25 22 24 23 19 19 14 5 8 17 19 20 21 23 27 23 23 32 25 24 15 8 9 10 14 15 15 16 15 16 6 10 16 24 24 22 20 18 22 22 24 23
27 27 27 23 23 24 20 21 19 18 8 12 12 23 25 15 15 20 24 21 14 8 5 5 4 10 14 5 7 6 9 13 10 11 11 22 22 25 35 23 24 21 23 24
29 28 28 25 24 25 24 24 20 18 17 22 12 14 15 13 9 7 13 5 3 8 4 5 6 10 8 7 9 10 11 10 14 15 16 16 21 22 20 23 9 21 31 33
31 29 28 25 25 28 25 25 20 16 17 26 24 20 20 25 19 5 6 5 3 4 4 3 4 5 5 6 12 12 10 6 7 8 12 10 18 17 21 13 5 11 15 19
29 25 26 26 26 28 24 25 19 17 16 24 23 14 17 15 19 21 7 7 3 4 3 2 3 5 7 6 12 9 4 6 7 6 8 25 47 33 50 40 31 23 8 14
26 26 27 28 27 26 20 18 18 9 7 15 7 13 19 18 15 10 11 6 7 6 10 3 3 5 5 6 4 8 15 11 5 15 7 17 46 51 18 15 8 10 16 28
28 30 29 27 24 18 15 14 5 14 7 3 1 11 21 31 33 16 16 23 16 12 7 3 3 3 13 6 5 7 13 15 15 18 16 38 25 15 12 19 24 29 29 34
29 29 28 22 13 11 13 3 2 13 12 4 9 4 20 29 29 31 12 11 17 6 1 5 4 4 4 4 4 6 20 10 9 6 29 24 26 34 21 31 32 30 39 39
29 28 19 10 11 11 8 3 5 19 16 4 3 4 15 28 27 34 36 28 22 16 8 8 6 14 5 5 6 22 35 29 27 15 20 35 34 46 39 38 40 41 45 42
24 18 11 8 13 8 6 3 12 13 9 4 5 4 14 22 14 31 35 33 28 20 9 9 9 10 4 4 7 29 36 33 39 43 29 42 48 36 45 43 43 50 49 44
18 12 7 6 12 9 9 11 10 15 3 4 3 4 6 17 7 7 15 25 29 24 13 12 12 6 7 5 23 29 35 32 40 44 43 39 44 52 52 50 49 52 48 44
16 8 6 5 8 9 10 8 9 11 10 4 4 6 4 12 6 4 3 5 5 8 8 11 10 6 7 12 23 30 34 29 31 36 42 43 43 41 43 45 45 44 40 37
16 7 3 6 12 11 8 5 5 5 7 6 5 11 3 7 5 4 3 4 3 2 6 5 5 6 18 28 28 28 29 28 29 32 38 39 38 36 37 38 36 34 31 29
15 8 5 9 9 7 6 7 8 9 5 10 10 11 8 6 3 3 6 2 2 3 5 3 4 5 17 27 26 27 29 29 29 26 25 27 28 31 32 32 31 30 28 27
11 8 5 7 8 8 6 4 5 5 4 10 12 14 10 7 5 3 7 3 3 4 3 3 3 6 21 26 26 27 26 26 26 25 24 25 26 27 26 26 26 26 24 22
5 5 3 7 8 10 5 7 4 6 9 6 19 14 7 6 6 2 3 4 3 1 3 2 3 13 23 26 27 28 25 27 27 26 24 22 21 21 22 21 20 20 20 19
4 6 7 4 4 3 1 3 4 9 11 19 18 7 4 4 4 4 4 2 2 3 3 3 5 15 22 23 24 27 28 28 28 27 25 23 22 20 18 16 16 16 15 15
6 7 4 4 4 4 11 12 11 10 13 11 7 5 4 5 3 3 2 4 4 3 2 3 11 15 21 23 25 26 27 27 27 25 24 23 22 22 19 17 15 14 13 13
6 9 4 9 5 11 14 15 12 15 12 5 2 2 3 5 3 4 5 2 3 2 5 10 12 16 21 24 25 25 24 25 25 24 22 21 21 21 19 16 15 14 14 13
5 5 9 7 4 8 15 15 17 17 7 3 3 5 3 3 3 4 4 3 3 8 9 12 13 15 22 24 25 25 24 23 22 22 20 19 18 19 19 19 18 16 15 15
Wind_Direction
1 3 3 1 0 1 21 9 24 9 15 54 36 33 337 330 337 356 317 296 329 348 337 297 281 287 320 2 354 351 2 294 260 244 237 238 234 236 210 217 199 246 273 244
356 353 354 354 356 2 6 8 342 360 35 39 9 342 310 285 327 344 332 299 6 318 307 309 295 299 311 325 358 358 342 306 296 254 229 214 235 235 244 242 265 237 221 234
353 353 343 358 355 356 5 4 346 352 43 69 2 335 336 319 307 295 271 301 301 302 296 290 283 284 292 301 301 299 274 245 254 269 282 330 277 255 233 227 228 238 232 243
338 339 342 343 353 350 11 16 58 5 326 329 315 251 276 296 301 289 304 277 265 303 291 292 288 291 304 294 283 285 244 259 273 282 287 291 290 296 292 244 235 238 240 231
341 341 344 346 347 342 356 347 328 243 276 282 252 278 277 272 288 273 270 280 286 300 287 285 293 289 280 284 291 270 263 270 278 279 274 276 278 281 276 283 257 247 252 254
334 338 342 338 339 338 335 307 269 252 294 246 240 275 269 276 284 282 269 286 284 284 281 290 291 285 280 273 276 272 264 259 261 264 273 278 265 251 259 266 263 249 245 244
342 333 330 336 333 330 326 319 313 272 289 276 273 274 281 278 279 285 281 281 270 270 291 297 285 273 266 265 264 258 260 255 248 255 267 261 265 261 257 264 256 243 245 250
341 334 334 332 326 329 317 317 303 264 285 291 288 272 288 292 287 276 269 282 273 273 294 270 284 287 284 286 264 255 236 249 242 244 248 256 257 258 227 240 257 241 245 244
334 330 336 334 328 329 323 319 313 291 279 280 299 296 293 283 277 283 277 268 272 255 258 262 270 302 308 303 312 176 303 225 225 231 257 259 255 249 239 246 257 259 264 248
334 333 333 333 338 327 321 313 316 298 277 288 298 282 291 291 259 250 284 279 231 218 247 261 277 289 300 289 302 304 305 295 273 249 266 262 258 265 285 214 236 230 237 239
336 337 334 338 330 330 331 315 318 301 283 290 293 289 289 294 297 296 335 290 204 207 225 255 299 281 304 286 289 289 300 327 302 306 293 271 13 306 243 258 220 271 270 244
338 337 333 332 327 329 331 321 329 316 275 280 311 314 342 332 305 277 257 260 224 237 257 261 288 282 287 279 307 22 17 338 304 291 280 309 307 296 287 287 258 274 245 151
342 340 335 333 331 331 330 327 326 340 294 305 7 33 32 16 351 310 264 254 226 214 233 251 278 276 332 9 49 7 341 337 287 310 293 300 298 301 246 250 176 160 147 126
343 339 334 331 326 332 328 335 54 20 328 289 90 18 36 6 354 327 258 255 254 258 271 277 295 353 17 26 349 16 343 306 317 287 293 318 349 12 97 103 99 101 100 106
341 337 330 332 342 343 337 11 27 8 352 304 308 342 14 4 18 26 19 253 230 224 4 48 37 35 357 1 5 12 347 334 338 314 322 343 354 26 68 86 88 92 95 92
340 336 342 359 4 354 350 327 313 341 345 312 327 9 2 14 35 36 46 71 73 88 70 60 38 26 48 15 19 347 348 350 358 344 352 18 23 35 46 66 75 82 87 93
348 353 10 29 15 32 36 17 318 348 342 357 327 36 355 14 34 50 53 58 61 67 63 42 28 22 43 49 20 342 349 358 12 20 26 23 27 27 42 53 66 77 81 81
352 357 19 25 28 24 5 1 9 12 24 29 40 337 339 4 344 44 52 59 62 51 62 53 31 35 43 37 354 354 2 7 17 23 32 34 38 46 48 54 60 67 66 70
352 355 1 3 12 9 1 5 28 36 41 70 42 347 336 339 335 329 8 55 57 42 58 45 38 31 43 353 358 6 8 7 4 21 34 35 36 37 42 48 53 57 62 69
355 8 23 20 345 357 10 20 23 40 35 44 46 350 321 316 323 325 345 72 57 49 38 62 39 50 26 16 15 14 15 16 19 23 23 23 28 31 38 44 50 55 56 62
360 1 16 2 16 22 33 30 31 351 38 7 354 355 334 329 326 338 27 77 55 54 17 50 27 25 9 13 15 17 24 27 28 31 32 32 35 34 37 39 44 47 49 50
340 344 8 16 29 30 52 10 360 23 355 344 341 333 324 309 321 312 8 83 56 74 9 52 30 6 0 8 7 10 13 16 20 23 24 27 30 33 36 37 39 41 44 45
354 7 44 18 9 39 44 350 333 334 337 333 330 328 323 322 352 353 40 69 57 41 51 52 27 351 2 6 6 8 11 13 15 17 18 18 21 21 23 26 29 29 31 33
24 33 29 48 17 32 308 300 288 290 299 318 323 309 325 327 4 359 61 35 52 65 50 36 1 352 355 360 3 5 6 8 8 8 9 10 10 11 10 9 8 10 13 15
55 38 45 42 334 327 324 317 310 327 316 322 313 299 339 356 46 38 52 46 58 49 44 359 343 347 353 356 358 360 0 1 2 2 2 2 2 2 4 2 357 352 352 355
55 47 32 354 358 339 345 344 334 347 332 326 328 353 47 46 16 30 26 57 43 23 344 332 335 342 348 349 351 352 351 352 353 356 356 356 357 359 358 358 2 1 354 348
47 36 13 358 330 330 337 339 342 352 357 18 18 44 355 310 47 31 20 37 356 325 325 343 341 337 341 342 342 343 343 344 346 346 347 347 348 350 352 358 358 353 351 349